📊 Raw Sensor Data
Showing records 50276 to 50300 of 85,132 total
| ID | Distance (ft) | Battery V | Battery A | Int Temp (°F) | Int Humid (%) | Ext Temp (°F) | Solar V | RSSI | SNR | Time Stamp |
|---|---|---|---|---|---|---|---|---|---|---|
| 34869 | 15.2 | 4.10 | 5 | 58 | 38 | 53 | 5.10 | -78 | 8 | 03/13/2025 12:15 PM |
| 34868 | 15.3 | 4.14 | 5 | 59 | 38 | 56 | 5.10 | -80 | 8 | 03/13/2025 12:00 PM |
| 34867 | 15.3 | 4.02 | 0 | 56 | 39 | 56 | 5.10 | -80 | 7 | 03/13/2025 11:45 AM |
| 34866 | 15.3 | 4.02 | 0 | 56 | 38 | 51 | 5.10 | -79 | 8 | 03/13/2025 11:30 AM |
| 34865 | 15.3 | 4.02 | 5 | 57 | 38 | 53 | 5.10 | -77 | 8 | 03/13/2025 11:15 AM |
| 34864 | 15.4 | 4.02 | 0 | 57 | 37 | 56 | 5.10 | -96 | 7 | 03/13/2025 11:00 AM |
| 34863 | 15.4 | 4.02 | 0 | 55 | 38 | 56 | 5.10 | -80 | 7 | 03/13/2025 10:45 AM |
| 34862 | 15.4 | 4.02 | 5 | 54 | 38 | 55 | 5.10 | -85 | 8 | 03/13/2025 10:30 AM |
| 34861 | 15.3 | 4.02 | 0 | 53 | 37 | 52 | 5.10 | -80 | 8 | 03/13/2025 10:15 AM |
| 34860 | 15.3 | 4.02 | 5 | 51 | 37 | 54 | 5.10 | -83 | 8 | 03/13/2025 09:45 AM |
| 34859 | 15.2 | 4.02 | 0 | 47 | 38 | 50 | 5.10 | -83 | 7 | 03/13/2025 09:30 AM |
| 34858 | 15.3 | 4.05 | 5 | 46 | 38 | 48 | 5.10 | -83 | 8 | 03/13/2025 09:15 AM |
| 34857 | 15.2 | 4.14 | 5 | 45 | 38 | 47 | 5.10 | -82 | 6 | 03/13/2025 09:00 AM |
| 34856 | 15.2 | 4.13 | 65 | 43 | 38 | 45 | 4.50 | -82 | 7 | 03/13/2025 08:45 AM |
| 34855 | 15.2 | 4.09 | 54 | 42 | 39 | 44 | 4.50 | -83 | 7 | 03/13/2025 08:30 AM |
| 34854 | 15.2 | 4.02 | 20 | 41 | 39 | 42 | 4.50 | -82 | 7 | 03/13/2025 08:15 AM |
| 34853 | 15.2 | 4.02 | 5 | 41 | 40 | 42 | 4.50 | -81 | 5 | 03/13/2025 08:00 AM |
| 34852 | 15.2 | 4.01 | 0 | 40 | 40 | 41 | 4.50 | -82 | 7 | 03/13/2025 07:45 AM |
| 34851 | 15.2 | 3.94 | -24 | 40 | 40 | 41 | 4.50 | -81 | 8 | 03/13/2025 07:30 AM |
| 34850 | 15.2 | 3.95 | -5 | 41 | 40 | 41 | 1.30 | -81 | 7 | 03/13/2025 07:15 AM |
| 34849 | 15.2 | 3.95 | -5 | 42 | 40 | 42 | 0.00 | -81 | 8 | 03/13/2025 07:00 AM |
| 34848 | 15.2 | 3.95 | -5 | 42 | 40 | 43 | 0.00 | -80 | 8 | 03/13/2025 06:45 AM |
| 34847 | 15.2 | 3.95 | -5 | 42 | 40 | 43 | 0.00 | -79 | 7 | 03/13/2025 06:30 AM |
| 34846 | 15.2 | 4.01 | -5 | 43 | 40 | 44 | 0.10 | -80 | 8 | 03/13/2025 06:15 AM |
| 34845 | 15.2 | 4.01 | -5 | 43 | 39 | 44 | 0.10 | -79 | 7 | 03/13/2025 06:00 AM |